Home   Weather   Montgomery   Past weeks

Flag for USA Past Weather in Montgomery, Alabama, USA — Yesterday and Last 2 Weeks

Now
54 °F

Mostly cloudy.


Feels Like: 52 °F
Forecast: 51 / 73 °F
Wind: 7 mph from Northwest

Location: Maxwell Air Force Base / Montgomery

Current Time: Apr 24, 2017 at 2:50:25 am

Latest Report: Apr 24, 2017 at 2:13 am


Visibility: 10 mi

Pressure: 29.79 "Hg

Humidity: 88%

Dew Point: 50 °F

Location of MontgomeryLocation

Past Weather in Montgomery — Graph

°F

Montgomery Temperature Yesterday

Maximum temperature yesterday: 68 °F (at 2:58 pm)
Minimum temperature yesterday: 56 °F (at 11:58 pm)
Average temperature yesterday: 62 °F

High & Low Weather Summary for the Past Weeks

 TemperatureHumidityPressure
High88 °F (Apr 21, 3:58 pm)100% (Apr 9, 4:58 am)30.29 "Hg (Apr 9, 4:58 am)
Low45 °F (Apr 9, 5:33 am)24% (Apr 9, 4:58 pm)29.79 "Hg (Apr 23, 3:58 am)
Average69 °F72%30.11 "Hg
* Reported Apr 9 12:58 am — Apr 24 12:58 am, Montgomery, Weather by CustomWeather, © 2017

Note: Actual official high and low records may vary slightly from our data, if they occured in-between our weather recording intervals... More about our weather records

Advertising

Montgomery Weather History for the Previous 24 Hours

Scroll right to see more
 ConditionsComfort  
Time TempWeatherWind HumidityBarometerVisibility
12:58 am
Mon, Apr 24
55 °FOvercast.7 mph84%29.82 "Hg10 mi
11:58 pm
Sun, Apr 23
56 °FOvercast.9 mph84%29.85 "Hg10 mi
10:58 pm56 °FMostly cloudy.5 mph83%29.85 "Hg10 mi
10:13 pm57 °FMostly cloudy.8 mph82%29.85 "Hg10 mi
9:58 pm57 °FMostly cloudy.7 mph82%29.85 "Hg10 mi
8:58 pm58 °FOvercast.9 mph78%29.85 "Hg10 mi
7:58 pm58 °FPartly cloudy.6 mph83%29.83 "Hg10 mi
6:58 pm62 °FOvercast.7 mph70%29.82 "Hg10 mi
5:58 pm64 °FPartly sunny.6 mph65%29.80 "Hg10 mi
4:58 pm66 °FBroken clouds.7 mph59%29.80 "Hg10 mi
3:58 pm65 °FOvercast.8 mph64%29.80 "Hg10 mi
2:58 pm68 °FMostly cloudy.10 mph61%29.80 "Hg10 mi
1:58 pm66 °FBroken clouds.8 mph68%29.81 "Hg10 mi
1:28 pm64 °FBroken clouds.6 mph73%29.83 "Hg10 mi
12:58 pm62 °FMostly cloudy.9 mph79%29.83 "Hg10 mi
12:28 pm61 °FMostly cloudy.5 mph88%29.85 "Hg10 mi
12:13 pm61 °FMostly cloudy.6 mph83%29.85 "Hg10 mi
11:58 am61 °FMostly cloudy.8 mph84%29.85 "Hg10 mi
11:23 am61 °FBroken clouds.12 mph88%29.87 "Hg10 mi
11:06 am61 °FDrizzle. Broken clouds.6 mph88%29.86 "Hg10 mi
10:58 am60 °FScattered clouds.9 mph91%29.87 "Hg10 mi
10:39 am59 °FScattered clouds.12 mph94%29.85 "Hg10 mi
9:58 am62 °FDrizzle. Fog.6 mph98%29.85 "Hg4 mi
9:41 am63 °FDrizzle. Fog.7 mph94%29.85 "Hg5 mi
8:58 am64 °FFog.10 mph97%29.83 "Hg6 mi
8:15 am64 °FMostly cloudy.6 mph100%29.83 "Hg10 mi
8:00 am66 °FLow clouds.6 mph100%29.82 "Hg9 mi
7:36 am64 °FDrizzle. Fog.7 mph100%29.81 "Hg3 mi
6:58 am64 °FLow clouds.5 mph100%29.81 "Hg10 mi
6:31 am64 °FDrizzle. Mostly cloudy.5 mph100%29.81 "Hg10 mi
5:58 am65 °FOvercast.5 mph98%29.80 "Hg10 mi
4:58 am64 °FPartly cloudy.3 mph100%29.79 "Hg10 mi
3:58 am65 °FPartly cloudy.No wind96%29.79 "Hg10 mi
2:58 am65 °FPassing clouds.3 mph95%29.80 "Hg10 mi
Weather by CustomWeather, © 2017

See weather overviewHow to use our weather pages